GFSSGP_850_spd_000.txt.gz
Wind_Speed
6 5 1 1 3 4 3 6 1 2 2 2 4 5 7 6 6 5 5 11 10 7 9 12 15 15 15 14 16 17 19 22 22 23 21 20 17 16 14 14 15 14 14 14 14 16 15 13 11
4 3 2 1 4 2 5 4 5 6 3 2 5 6 2 2 3 3 6 6 5 7 11 11 10 11 14 14 14 18 20 21 23 23 23 21 19 18 18 16 16 15 13 14 13 15 15 15 12
4 2 2 4 3 4 5 6 7 4 7 6 3 1 1 2 3 2 4 4 7 9 11 9 9 12 14 14 16 18 19 22 23 25 24 22 21 19 19 17 16 16 14 12 14 14 13 16 14
3 1 3 3 5 6 6 5 5 2 6 8 5 2 2 4 2 0 2 5 8 11 11 11 13 13 13 15 17 20 21 23 25 23 23 22 19 18 20 19 18 17 14 14 15 16 15 16 16
2 1 3 1 5 4 5 5 13 6 2 5 8 3 3 4 2 3 5 6 8 11 12 12 11 11 14 17 18 22 24 27 26 23 22 24 21 19 18 19 20 20 18 14 16 17 18 16 16
3 2 3 3 6 5 5 8 11 7 10 4 4 6 3 5 5 6 7 7 9 10 9 9 9 12 15 18 20 23 26 28 28 27 25 26 22 20 19 17 17 20 20 15 16 18 17 17 16
4 4 4 4 5 5 5 10 8 10 5 5 6 5 4 9 8 8 7 8 10 10 10 10 12 16 17 18 21 26 30 29 27 26 25 26 23 23 22 20 16 17 18 16 18 21 19 20 18
4 5 3 4 5 7 6 10 5 12 7 6 8 5 5 13 10 8 8 10 11 11 11 14 15 16 18 22 26 26 23 24 27 25 21 23 24 24 25 22 21 17 18 19 18 22 22 21 19
5 3 3 5 3 7 4 3 4 8 10 8 9 6 7 12 10 8 8 11 10 11 13 15 17 17 21 23 22 22 21 19 19 20 25 29 29 26 25 24 21 20 18 21 20 22 24 21 20
5 3 7 7 6 6 6 7 12 5 6 3 8 9 12 11 10 8 10 11 11 12 14 15 16 17 19 20 21 21 19 16 12 15 19 20 24 25 28 29 27 25 19 18 21 22 24 22 21
6 5 7 12 15 14 8 6 11 7 4 12 17 18 15 13 10 8 10 10 11 13 14 14 15 14 17 17 18 19 13 11 12 14 11 13 17 19 25 28 24 23 19 19 20 23 24 23 21
3 13 9 12 17 8 7 8 6 16 12 12 15 14 15 13 9 7 7 8 10 13 13 16 14 14 18 16 16 16 11 8 10 7 6 5 6 7 11 15 17 19 18 17 18 21 23 22 22
6 5 3 7 11 14 9 8 5 17 14 8 16 17 15 13 9 5 4 8 12 14 12 14 13 14 16 14 15 13 11 9 5 4 2 3 4 2 7 11 13 14 15 17 19 22 22 22 21
7 6 1 2 4 7 7 2 5 11 12 16 19 19 17 13 7 2 3 8 12 13 12 12 13 14 16 11 13 11 9 9 6 2 1 2 3 3 5 8 11 13 14 17 18 19 20 22 22
1 2 5 2 5 3 4 3 9 12 18 19 22 19 16 12 7 2 4 8 11 11 13 13 13 14 13 11 11 10 8 7 5 1 1 4 4 4 5 8 11 13 14 16 17 17 18 22 22
3 4 3 4 5 3 8 10 6 15 23 23 22 20 17 13 7 2 3 8 10 9 14 14 13 14 13 11 11 8 8 6 5 3 1 3 4 4 7 10 12 13 15 16 17 17 19 20 22
7 3 4 6 9 3 5 9 3 13 28 24 23 21 17 13 9 3 1 6 9 9 13 15 14 14 12 12 10 9 8 7 4 3 3 6 6 7 8 9 11 14 15 16 16 17 19 21 24
4 3 3 4 3 4 3 13 6 9 26 24 24 22 19 15 9 4 1 4 9 8 12 16 14 14 13 11 11 9 9 7 5 3 3 2 2 5 7 10 12 14 15 16 18 19 22 24 27
4 3 5 4 5 5 7 9 16 11 19 15 24 25 22 17 11 7 3 1 7 9 8 13 13 16 16 11 10 10 8 8 6 5 4 6 3 5 7 10 14 13 15 18 21 25 26 29 32
3 3 5 5 3 6 8 10 8 8 13 27 29 29 25 20 15 10 6 1 4 9 5 10 10 13 17 12 10 12 13 10 7 9 11 10 13 12 7 8 12 13 20 22 24 28 32 34 34
5 3 5 7 2 3 1 6 5 5 7 13 21 27 28 24 18 13 9 3 1 8 6 8 9 12 14 12 9 13 14 12 9 12 12 12 13 17 15 16 13 12 22 25 27 30 34 36 35
4 8 6 4 2 5 4 5 6 6 6 7 19 29 30 27 19 14 11 7 2 6 7 6 10 11 10 13 11 14 15 19 15 14 18 19 19 20 21 15 8 17 25 26 29 34 35 38 43
10 3 5 3 4 2 2 2 6 2 6 10 17 30 33 29 23 18 13 8 4 6 6 4 8 9 8 12 14 18 15 16 15 14 9 11 14 14 14 16 20 17 18 27 26 29 37 39 38
3 3 6 4 4 1 7 7 5 5 8 7 5 27 35 32 25 17 12 10 7 6 4 2 6 7 6 8 12 14 16 15 15 15 12 4 6 12 10 11 19 17 16 22 25 21 25 29 28
5 6 4 4 3 6 3 3 8 8 10 9 9 26 36 34 28 22 19 15 11 7 5 1 2 4 4 5 8 12 12 13 13 12 12 7 10 13 14 17 17 18 18 22 27 24 18 22 23
7 9 5 6 3 5 3 5 6 7 8 14 13 20 34 35 30 24 19 16 13 9 7 6 2 2 3 4 7 10 9 9 13 14 14 14 17 18 15 15 17 18 19 19 21 17 13 18 16
5 4 6 4 1 2 3 7 10 4 4 4 11 21 32 37 32 26 21 18 15 12 7 5 5 2 2 2 3 6 6 6 8 12 13 19 19 15 19 15 15 17 21 20 19 17 21 14 15
9 6 2 2 2 4 4 4 6 9 5 5 7 18 31 36 32 26 22 20 17 14 9 7 6 3 4 2 1 4 4 5 6 7 10 14 15 15 14 14 13 13 14 12 16 12 13 17 18
3 3 4 4 4 5 3 6 6 6 9 8 10 24 33 39 35 28 23 19 18 15 13 9 7 5 4 5 2 1 3 5 6 6 8 9 10 11 14 15 15 16 16 19 21 22 21 21 21
7 10 9 5 5 3 4 8 6 7 9 8 11 21 29 36 33 27 24 21 20 18 15 10 9 6 4 4 4 3 3 4 8 8 8 7 10 11 11 14 13 13 13 14 16 20 19 20 22

GFSSGP_850_spd_006.txt.gz
Wind_Speed
12 10 6 3 7 6 8 3 5 6 4 2 5 4 4 6 5 6 1 2 3 3 7 10 11 15 18 18 17 19 20 19 20 22 22 21 20 17 15 16 16 16 14 12 12 11 12 15 14
10 7 3 5 7 8 2 3 6 7 3 5 5 4 5 3 4 3 3 5 4 4 8 8 14 14 17 16 17 19 21 22 22 23 25 25 23 20 16 17 18 16 15 15 15 13 14 14 15
7 6 11 4 6 8 5 4 5 3 6 7 4 4 1 0 4 3 4 4 5 6 7 10 14 13 14 18 19 21 21 22 23 25 27 25 23 23 23 19 20 17 15 14 15 15 14 16 16
3 5 7 9 9 1 7 9 7 6 5 8 6 5 2 4 4 5 5 4 5 7 9 13 14 15 17 20 22 21 23 24 25 25 27 27 27 25 24 23 18 18 17 15 16 14 15 15 17
4 8 10 9 8 4 7 10 9 8 7 4 6 3 3 3 7 6 4 6 7 9 11 12 18 19 19 22 21 23 24 26 26 28 28 29 30 28 26 25 21 18 17 19 18 19 15 16 16
11 6 10 12 4 3 7 7 8 8 7 3 5 5 4 5 6 5 6 6 8 9 14 13 14 17 19 22 23 25 26 26 28 31 33 34 33 29 27 26 24 20 19 18 17 17 18 17 15
14 8 14 12 11 9 4 6 8 7 8 8 4 5 2 7 8 9 8 10 10 12 11 10 13 16 19 21 22 23 25 28 31 33 32 28 29 26 25 26 24 21 18 16 18 18 21 17 17
11 9 16 12 12 11 3 4 6 9 8 3 6 5 5 8 8 10 6 5 4 7 9 12 14 13 14 14 21 22 25 26 29 30 29 24 23 21 22 24 22 20 20 17 16 19 19 20 19
8 11 12 12 13 12 6 11 4 5 10 8 9 9 5 7 6 7 7 6 6 9 11 13 13 13 14 16 16 21 22 23 22 19 18 21 14 13 13 17 22 24 22 19 15 19 20 21 20
13 12 16 8 12 14 19 11 15 7 9 12 11 9 11 9 8 8 8 7 8 9 11 12 11 16 18 14 15 16 16 18 15 14 14 16 13 13 16 16 17 20 22 19 17 18 19 20 17
15 15 14 15 16 19 21 15 12 13 13 11 11 12 12 11 11 11 9 7 7 9 10 11 12 17 17 12 14 12 16 12 11 11 10 11 13 14 14 14 17 21 20 17 15 14 15 16 18
15 18 19 18 14 13 9 8 10 14 14 3 7 7 13 15 14 11 8 5 6 9 10 10 11 16 16 13 10 13 12 10 10 9 7 6 5 9 14 17 15 20 21 19 16 15 17 18 18
15 18 16 16 14 10 5 10 9 12 10 10 9 11 15 15 13 10 7 4 5 8 9 9 13 13 12 11 9 10 10 8 9 10 7 7 5 5 6 10 15 20 19 18 15 13 15 18 19
15 12 15 14 13 7 8 5 4 9 4 11 12 14 15 15 13 10 7 4 5 7 7 9 10 10 9 9 10 10 9 8 8 7 6 7 5 3 1 5 10 15 16 14 15 14 15 17 17
14 15 14 14 12 6 6 10 9 10 6 11 15 14 15 15 13 11 7 4 3 5 6 9 9 9 9 10 9 9 8 9 8 7 8 7 5 3 3 8 9 12 17 17 14 15 17 18 18
13 14 15 12 9 6 6 9 9 10 10 15 16 17 16 16 15 11 8 5 2 3 5 8 8 8 10 10 10 8 8 9 9 8 7 8 7 5 3 7 12 13 14 15 15 16 17 17 17
16 15 18 10 11 5 11 13 8 11 12 16 16 18 18 17 15 13 10 6 1 2 4 6 7 8 10 9 9 10 10 9 7 6 7 8 9 9 7 7 11 13 14 14 18 17 18 18 18
16 13 12 13 9 9 12 14 14 17 17 16 17 18 20 19 18 14 12 7 2 1 3 6 6 9 11 10 11 11 9 8 7 7 10 8 8 8 9 9 11 13 14 15 16 19 18 17 17
14 12 14 12 7 10 16 15 15 18 21 16 17 19 21 20 17 15 13 8 4 1 2 4 6 9 11 8 10 12 11 8 6 6 10 11 11 7 10 11 13 13 13 13 16 17 18 18 18
15 17 17 11 10 9 15 17 19 17 17 16 16 18 20 19 19 17 14 9 5 2 1 3 5 8 10 8 11 10 9 9 11 14 8 8 6 8 10 13 14 14 15 14 15 16 16 17 18
19 18 15 12 12 12 16 18 12 9 10 13 13 15 18 22 22 20 16 12 7 3 3 1 4 7 10 12 10 12 10 9 10 17 24 19 5 5 9 12 13 14 13 14 17 17 16 19 20
20 16 15 14 12 12 4 14 14 10 11 11 13 14 17 21 22 21 18 14 9 6 5 2 3 7 8 12 9 11 7 4 6 10 15 15 15 8 8 12 15 16 15 16 20 19 20 20 22
17 13 13 15 12 12 16 8 10 6 9 7 6 13 15 20 23 23 20 15 11 9 6 3 2 5 7 10 11 10 9 9 4 5 11 18 12 14 12 11 13 15 17 19 22 22 20 22 26
15 8 10 8 11 12 15 10 9 3 4 5 5 1 11 18 22 21 19 15 13 10 8 4 3 5 5 7 10 12 14 14 11 2 4 12 13 11 9 11 15 14 16 20 22 20 24 27 22
17 13 9 10 9 11 2 6 10 10 8 9 9 6 9 19 24 24 22 18 15 13 10 6 4 4 5 6 7 10 12 15 15 9 6 9 10 12 14 14 15 14 16 20 21 25 25 29 25
20 18 11 10 11 10 6 6 4 2 6 7 6 5 10 21 25 25 22 18 15 14 12 8 5 5 5 6 6 8 11 11 13 14 16 14 12 15 15 15 19 19 17 22 23 23 25 24 24
14 16 17 15 13 8 11 5 11 7 7 4 3 6 14 22 24 24 22 18 16 15 13 10 7 6 6 5 6 7 10 11 13 14 15 16 20 17 13 17 23 19 19 21 22 22 22 19 20
20 16 10 10 14 13 8 7 7 3 5 4 6 9 16 22 24 23 21 18 17 15 14 11 8 6 7 6 6 6 8 8 10 10 12 11 12 16 16 14 16 15 17 19 20 21 21 19 15
13 16 14 13 13 12 9 6 5 4 3 3 7 13 19 23 25 25 22 19 18 17 14 12 10 8 8 7 6 7 7 8 9 10 12 14 15 18 15 15 12 13 16 22 18 17 17 14 17
22 22 21 11 16 10 10 10 3 5 1 3 9 16 22 24 24 23 22 20 20 18 16 13 11 9 9 8 7 7 8 8 9 10 12 12 16 18 18 17 19 19 15 15 16 18 20 17 17

GFSSGP_850_spd_009.txt.gz
Wind_Speed
10 9 4 8 8 8 14 1 6 10 3 5 2 6 12 11 9 5 3 2 1 2 5 10 8 9 13 15 16 17 18 17 20 22 21 20 20 19 16 17 18 17 15 12 13 12 11 16 18
9 6 6 13 8 12 3 9 7 10 9 1 2 4 5 5 6 2 2 2 3 3 4 6 13 14 16 14 16 19 19 21 23 22 22 22 23 24 20 16 16 18 17 14 15 14 13 15 17
10 6 12 10 13 14 10 8 11 7 1 7 4 1 4 8 2 3 0 3 4 4 6 8 13 17 15 14 17 20 21 23 24 24 24 23 23 24 23 23 20 19 18 15 16 16 17 15 17
7 9 12 9 19 8 5 12 10 12 5 6 5 6 4 4 3 0 2 3 5 7 8 12 17 18 18 18 20 20 22 23 25 27 27 27 27 27 26 24 24 22 17 17 17 18 16 17 17
9 12 11 17 17 9 3 11 11 9 7 3 2 6 1 5 4 2 2 4 5 8 9 9 16 19 18 20 22 23 24 27 27 28 28 29 29 29 28 27 27 24 20 19 20 19 20 17 17
14 16 12 15 6 9 5 5 8 11 9 3 4 7 2 7 4 3 4 4 5 6 6 7 13 17 17 18 20 24 26 27 27 28 30 31 32 33 34 30 27 26 23 20 21 22 20 18 18
16 12 17 17 18 13 6 5 11 12 12 8 3 7 2 4 5 6 5 5 4 3 5 8 10 13 18 18 20 21 23 25 27 29 32 33 32 31 31 26 25 26 25 21 21 21 21 21 18
19 13 21 16 14 12 10 2 13 8 9 5 4 5 9 4 8 6 5 6 5 7 7 10 12 13 14 13 19 26 22 22 26 27 29 30 26 24 22 21 24 25 23 20 17 17 22 20 18
16 13 15 19 16 10 11 14 8 4 12 8 7 8 3 5 7 7 7 7 7 9 10 12 12 12 12 13 14 19 19 22 21 19 18 18 14 13 16 16 20 23 21 22 19 17 21 22 20
19 14 21 15 14 12 18 19 20 7 11 11 10 9 6 8 9 9 10 8 7 9 10 12 12 12 11 11 13 15 17 19 21 15 14 14 13 14 13 16 15 20 24 23 20 17 19 23 14
23 17 18 19 18 16 17 19 11 10 10 12 4 8 14 12 12 12 11 8 6 7 9 10 12 11 11 11 12 12 13 18 13 16 12 13 13 11 15 17 17 17 21 22 19 16 16 15 16
21 22 24 19 22 17 13 12 11 10 12 7 7 6 9 13 14 14 11 8 6 7 8 9 9 10 10 10 10 11 13 11 11 12 12 10 8 11 14 14 16 19 20 18 20 15 13 15 18
19 18 25 26 20 18 16 11 13 13 9 7 7 9 12 14 14 13 11 8 6 6 7 8 9 9 11 11 9 13 15 9 10 10 11 11 11 13 11 12 16 18 23 24 21 16 18 16 20
25 29 23 21 20 19 12 17 5 13 1 5 11 12 13 14 16 13 11 8 6 6 6 8 8 8 9 13 15 14 12 10 10 10 10 11 10 9 9 9 16 20 26 23 21 18 15 19 20
26 19 20 20 21 17 14 17 16 14 10 11 11 16 16 16 15 16 12 9 6 5 6 6 7 8 11 15 14 14 11 11 9 10 9 10 12 9 8 5 7 14 21 23 20 18 17 17 20
20 23 19 22 22 15 10 19 14 14 14 14 15 17 15 16 16 15 12 10 6 4 5 5 6 7 9 11 12 12 11 12 10 9 10 11 12 10 8 5 6 12 20 21 18 17 17 19 20
19 18 22 19 11 13 16 19 19 7 14 16 17 17 16 16 17 16 13 10 7 4 4 4 5 6 9 10 10 11 12 10 11 10 11 12 12 11 9 7 9 11 17 20 19 21 20 22 20
20 23 20 16 14 11 16 19 19 19 17 20 22 16 16 18 19 17 14 11 7 4 4 3 4 6 10 10 9 10 10 8 7 9 9 10 11 10 10 9 11 14 14 17 18 21 22 21 20
22 20 16 12 7 14 11 16 20 23 19 22 23 17 16 18 18 18 16 13 8 5 4 3 4 6 8 9 9 10 7 6 8 9 10 8 12 10 9 9 11 14 15 17 17 21 22 20 19
25 20 19 15 14 10 14 19 21 20 23 22 21 17 13 17 19 19 17 14 10 6 5 2 2 5 6 7 8 5 5 3 9 14 12 4 4 7 9 11 10 10 13 16 18 21 21 21 22
23 20 17 17 16 11 12 23 22 15 12 16 13 9 12 18 21 21 19 15 11 7 6 3 1 2 5 7 8 6 4 5 7 11 11 7 4 6 9 12 14 14 11 14 18 19 15 14 18
22 18 19 16 15 13 14 16 15 16 9 10 15 14 13 16 20 21 19 16 12 8 7 4 2 2 4 6 6 9 7 4 5 7 10 9 4 5 10 13 14 15 14 16 16 16 16 18 16
19 17 16 13 15 18 19 11 16 10 10 6 8 15 14 17 22 22 20 17 13 10 8 6 4 3 2 6 7 8 8 11 2 2 9 11 9 5 6 15 17 16 16 14 17 18 19 19 18
20 16 15 11 11 15 18 15 15 9 4 4 3 4 14 17 21 21 20 17 14 11 10 7 5 4 1 3 6 8 9 11 9 2 5 8 9 5 7 12 14 17 17 16 18 18 20 20 20
16 13 11 12 13 13 17 11 10 14 4 5 4 3 10 16 21 23 23 19 16 13 11 8 6 4 2 2 4 6 10 16 14 10 10 12 10 9 9 12 12 14 16 18 20 21 20 22 23
22 20 12 15 13 13 11 7 5 4 2 4 4 3 10 16 21 23 22 19 16 14 12 9 7 6 4 2 3 6 8 12 13 14 13 13 13 12 12 12 12 13 17 19 20 24 26 26 29
18 21 21 20 17 11 6 7 9 6 10 8 5 4 11 18 22 23 22 18 16 15 13 10 8 7 5 3 3 4 7 8 12 13 11 17 14 12 12 13 13 15 19 21 23 26 26 27 24
23 20 19 14 17 16 13 10 4 10 5 8 7 8 15 21 23 22 21 18 16 15 14 12 9 8 6 5 4 4 6 8 8 8 8 9 16 14 13 14 19 19 18 22 23 25 24 22 21
21 20 15 15 13 11 10 8 8 6 5 2 9 12 21 23 23 22 21 18 17 16 14 13 10 9 8 6 5 6 6 8 8 9 10 12 15 14 14 10 12 18 20 22 22 22 21 19 14
26 26 22 10 18 12 12 3 10 7 5 6 9 15 21 22 22 22 21 19 18 17 15 14 12 10 9 8 6 6 7 7 8 10 10 14 15 16 15 14 15 19 21 19 21 19 18 15 17

GFSSGP_850_spd_015.txt.gz
Wind_Speed
6 5 3 2 2 2 6 8 6 5 4 13 12 7 11 12 5 5 17 9 3 5 8 9 8 9 9 12 12 11 11 12 13 13 13 14 15 13 14 15 15 16 14 12 11 11 10 10 11
7 7 3 5 2 1 5 10 15 2 12 9 8 7 16 4 19 19 17 8 6 6 9 12 11 10 12 15 16 14 13 14 13 14 16 18 18 17 15 16 15 15 15 15 12 12 13 11 12
9 4 8 4 4 6 5 5 20 12 6 7 4 10 10 13 20 24 16 12 8 7 10 13 9 9 12 16 17 17 15 14 17 17 18 20 19 19 17 18 20 19 19 17 15 13 14 15 13
5 4 8 1 10 12 4 8 10 2 12 11 11 7 10 11 16 14 12 3 5 6 6 10 8 7 12 17 18 18 16 18 20 20 20 21 21 20 20 22 22 22 21 21 18 15 15 15 15
6 6 4 5 13 16 3 12 15 4 11 6 11 6 12 15 17 16 10 12 12 10 7 8 11 15 17 18 17 16 17 20 21 22 23 23 23 23 23 24 23 23 22 21 19 19 16 18 18
5 4 3 6 15 9 5 9 17 10 13 7 10 11 11 16 15 12 7 9 14 14 13 14 16 14 16 15 15 17 15 15 17 20 23 24 24 24 24 25 26 27 27 25 22 21 17 20 20
6 2 7 11 16 14 4 17 1 16 7 6 6 4 16 17 14 13 13 15 17 11 10 10 13 12 10 9 12 13 16 19 19 19 19 21 23 25 25 25 27 26 25 24 22 23 19 22 22
13 2 10 13 12 17 4 11 10 15 3 5 4 5 8 21 20 13 14 10 5 8 9 9 6 6 10 12 15 19 17 18 19 18 18 17 18 18 17 16 14 17 19 21 20 23 21 21 23
24 7 12 16 16 16 22 6 13 15 4 9 9 14 18 28 20 12 11 11 9 10 10 11 9 10 14 17 19 13 14 16 18 21 23 25 22 18 14 11 10 13 13 16 21 21 22 20 23
16 6 19 15 18 16 17 14 18 12 17 11 5 18 19 19 16 12 14 11 14 16 18 12 11 17 20 20 13 12 12 18 22 23 21 18 15 12 11 10 12 12 14 15 18 19 22 21 22
24 15 17 23 30 31 22 16 25 15 4 8 17 21 19 19 14 12 14 16 15 19 15 15 16 19 21 19 13 13 12 15 19 22 22 14 14 12 8 7 10 16 14 14 16 19 20 21 18
20 28 30 31 31 27 7 16 17 22 12 8 11 14 18 18 19 18 15 10 14 12 11 12 17 19 18 16 14 13 12 17 20 24 17 15 13 15 12 12 10 14 15 13 16 21 21 17 15
23 21 32 34 32 29 13 13 20 26 12 8 7 8 13 15 17 18 16 17 14 14 12 14 17 17 15 15 13 12 13 14 18 15 13 14 14 16 15 13 11 13 16 15 16 21 20 14 15
31 24 26 30 27 19 11 19 26 23 19 12 12 8 12 13 14 20 21 17 15 13 12 14 14 13 13 15 14 16 15 17 16 15 13 14 15 16 12 12 12 12 16 18 15 21 19 18 20
29 21 23 21 19 16 25 17 15 22 17 16 17 17 19 17 19 25 24 22 22 18 15 12 9 8 10 13 15 16 18 19 18 14 14 16 15 16 13 10 11 10 14 21 17 17 19 17 19
17 15 16 10 12 26 17 20 14 26 17 16 18 23 19 25 28 23 24 25 23 18 12 11 10 9 10 12 12 13 15 16 16 13 13 14 14 16 14 11 11 9 13 23 18 20 20 19 21
9 12 14 16 19 22 12 19 17 24 15 16 24 25 27 28 27 26 27 25 22 15 11 11 10 7 9 10 9 12 13 14 14 14 11 11 12 13 14 10 7 6 11 24 20 22 22 19 19
13 8 13 18 23 18 14 14 8 20 22 24 28 23 28 24 30 32 27 22 18 11 10 9 7 7 9 7 11 13 12 10 11 15 12 10 9 11 13 9 6 5 9 18 21 22 23 17 16
14 14 19 22 19 17 6 20 9 15 13 10 18 21 20 18 34 30 25 21 16 10 9 6 4 8 8 9 12 10 10 12 13 14 14 10 7 9 11 7 6 8 10 18 19 21 20 16 22
17 19 22 23 19 4 15 20 13 8 7 15 22 27 23 24 35 28 24 20 16 10 7 5 6 6 7 6 8 10 14 14 14 12 13 11 4 6 11 6 7 11 13 17 20 19 19 18 21
21 20 21 19 21 16 6 5 5 5 9 20 29 33 19 29 37 32 27 22 17 11 8 6 6 7 3 5 8 11 12 11 12 7 11 9 3 3 6 7 10 12 13 18 20 20 22 23 21
21 19 21 21 16 8 1 6 4 6 10 10 22 22 27 35 34 33 29 25 17 11 8 8 9 2 2 6 9 12 17 16 10 4 10 7 3 4 9 12 12 10 13 16 20 20 22 22 23
22 16 19 21 15 7 4 3 5 4 8 13 4 20 34 38 34 33 30 22 14 11 10 10 7 4 1 7 10 13 16 11 7 3 6 8 1 3 12 13 12 12 13 17 18 21 18 18 21
25 16 16 16 11 4 6 7 9 6 8 5 4 15 36 36 34 31 25 19 15 13 13 9 7 4 3 4 7 9 12 12 10 7 6 6 1 4 13 15 14 14 13 16 16 20 19 20 19
20 14 9 3 3 6 5 4 9 9 7 7 10 25 33 32 33 31 26 22 19 18 13 10 10 3 5 3 5 7 11 11 13 11 9 7 7 5 10 16 16 15 13 15 14 16 16 20 20
19 15 7 7 4 5 6 7 10 14 12 19 30 32 32 35 33 31 27 23 21 16 15 9 10 7 6 1 3 6 8 7 10 12 10 10 6 10 9 11 14 14 12 16 18 15 13 15 18
16 12 13 5 1 2 5 6 6 7 8 10 20 29 32 34 33 30 26 22 21 17 15 11 10 5 7 2 2 5 7 8 9 10 11 10 10 9 8 11 13 17 15 17 18 20 18 20 21
23 7 7 1 8 6 5 6 6 7 9 10 11 19 30 33 31 30 28 23 20 18 15 11 9 9 6 1 4 4 5 7 9 9 10 9 11 13 12 11 13 15 19 21 22 21 21 21 21
12 12 4 7 6 5 2 7 7 12 9 14 12 27 32 34 32 31 26 23 20 19 16 14 10 9 8 5 5 4 2 2 7 9 11 7 10 14 14 15 17 20 21 21 23 26 23 21 19
14 10 7 8 6 5 5 6 9 8 12 12 18 28 30 31 31 29 27 25 21 19 16 15 11 11 7 5 6 6 3 1 6 7 11 11 7 14 15 17 18 17 21 21 24 24 22 22 20

GFSSGP_850_spd_021.txt.gz
Wind_Speed
5 5 2 1 3 4 4 6 3 6 4 2 3 4 5 2 5 4 13 14 15 19 20 20 15 10 7 7 7 8 9 10 11 12 12 12 12 12 13 14 15 14 14 12 10 11 13 14 17
5 5 1 2 3 1 5 5 6 8 7 3 6 8 1 1 5 7 17 12 12 9 11 14 12 11 8 9 9 9 11 12 13 13 14 14 13 14 14 15 16 16 15 14 12 11 12 14 16
6 6 1 3 3 4 4 4 6 17 18 9 2 2 3 3 6 5 6 13 13 10 7 6 10 12 10 10 10 11 12 13 14 15 15 16 15 16 15 14 15 17 15 15 15 14 13 13 15
5 3 2 3 8 6 5 11 17 11 22 5 9 3 5 7 5 7 10 14 12 9 8 8 12 13 11 10 10 11 12 12 14 14 15 17 17 18 17 17 18 18 19 18 17 17 18 16 15
8 2 1 2 6 5 6 18 20 5 5 3 13 6 5 13 11 10 14 14 10 9 11 12 12 11 9 9 9 10 10 12 14 11 13 16 17 19 20 21 20 20 20 20 19 19 19 19 17
4 2 1 4 5 4 7 24 13 7 8 4 3 9 6 12 20 16 18 14 13 9 13 14 13 11 10 10 12 15 15 15 12 11 11 13 14 17 21 23 23 22 22 22 22 22 21 20 20
5 3 4 4 9 8 7 6 4 7 8 8 8 7 5 18 22 20 20 16 12 15 14 13 14 12 12 12 15 18 17 16 13 11 12 12 12 13 14 17 21 24 25 25 25 24 24 23 21
5 4 3 5 5 11 8 4 12 14 14 8 14 5 7 20 24 26 21 17 15 18 17 14 15 15 14 16 18 17 16 16 12 13 13 14 14 14 15 13 16 18 20 23 24 24 25 25 24
7 2 6 7 6 8 9 4 22 14 13 13 12 20 20 12 28 27 24 22 21 19 18 18 17 17 16 19 17 16 18 15 16 15 15 15 15 16 14 13 14 15 15 16 18 20 22 23 25
9 5 9 9 7 8 19 8 24 14 24 21 14 15 20 17 33 32 31 28 24 22 23 23 22 19 19 17 16 17 13 14 16 16 15 15 15 16 14 12 12 13 15 16 15 16 20 22 24
10 13 21 18 25 17 16 27 26 12 12 27 26 19 18 24 36 36 33 27 22 22 27 28 24 21 19 16 15 12 8 9 12 14 14 16 17 18 15 12 12 11 12 17 15 13 17 22 22
5 15 27 33 35 21 15 28 22 29 29 39 40 22 18 30 37 37 34 30 26 29 31 30 26 22 18 15 11 7 7 7 8 10 14 18 19 16 15 13 12 13 12 13 15 13 14 19 21
6 14 26 27 29 29 29 24 23 32 39 42 35 21 21 32 31 34 32 30 28 33 34 32 28 23 17 11 7 6 7 7 9 11 14 16 17 17 14 15 13 11 11 12 15 15 15 18 20
12 13 20 19 27 28 24 21 21 28 34 36 27 23 24 33 34 36 37 35 34 35 37 33 27 20 13 9 7 7 6 7 8 10 12 15 16 17 16 16 13 12 12 12 13 14 14 16 17
15 14 17 14 18 21 26 16 21 32 32 35 32 25 28 34 37 40 38 40 37 37 34 31 24 15 10 7 7 6 7 8 9 10 12 13 15 16 17 15 14 11 12 13 12 15 15 18 18
4 3 7 6 15 19 9 26 19 36 31 33 32 33 30 37 39 42 42 41 38 36 32 26 18 11 8 7 6 7 9 10 11 11 10 12 13 15 16 15 14 13 13 12 11 16 16 19 18
2 14 15 21 11 6 7 15 10 27 24 26 35 40 31 38 44 46 45 40 39 35 29 23 15 9 7 5 5 8 10 9 10 10 12 14 13 13 15 14 13 14 12 11 12 17 16 19 19
10 8 6 17 1 8 13 13 17 29 21 26 31 36 31 40 44 43 43 39 38 33 27 19 12 8 6 4 5 8 7 10 11 12 13 14 13 11 13 13 12 13 11 12 14 18 15 18 17
8 8 9 8 4 7 8 9 15 18 15 21 30 32 31 37 30 26 36 36 38 32 25 16 11 8 5 3 3 6 9 12 12 12 13 12 12 9 11 12 12 11 10 9 17 17 16 18 15
9 9 17 18 8 7 9 14 15 12 13 19 26 32 26 22 18 19 29 37 38 32 21 14 11 8 5 2 3 8 11 14 13 11 9 10 12 7 9 11 11 9 9 10 20 19 17 16 15
18 17 15 19 2 6 8 14 12 15 8 21 21 19 18 23 24 25 35 40 35 27 18 12 10 6 4 1 4 7 11 11 9 6 5 8 7 4 7 11 10 9 9 11 20 19 18 17 16
19 16 21 18 5 6 4 5 5 8 10 7 18 14 18 20 20 26 39 37 32 22 14 12 9 5 5 0 4 8 10 11 9 6 5 7 5 2 6 8 8 9 10 14 15 17 17 17 19
18 11 9 10 6 4 9 3 7 4 8 11 11 14 13 14 21 31 40 35 25 17 13 11 8 6 6 1 5 7 8 10 10 8 6 5 3 4 7 8 10 10 12 12 15 15 15 15 19
7 4 2 4 4 12 19 7 5 7 8 7 4 5 10 20 26 32 35 29 21 16 14 11 7 7 6 2 5 5 8 10 11 10 8 7 3 6 9 10 10 10 12 14 15 14 15 15 16
7 7 2 3 5 7 7 6 15 7 9 9 9 10 17 22 28 34 35 30 23 19 16 11 8 8 6 2 5 5 7 8 10 12 8 3 1 7 11 10 10 8 10 12 14 14 14 15 17
14 14 6 6 4 4 7 7 7 8 11 19 24 14 24 26 28 35 35 28 23 19 17 10 9 7 5 2 4 4 5 7 9 11 8 5 4 6 12 11 12 8 10 11 13 12 11 12 13
9 16 12 2 2 2 4 7 9 2 5 6 10 21 26 29 31 35 33 27 22 20 17 10 10 7 4 2 2 2 4 8 9 9 6 4 4 6 10 12 13 10 11 12 12 12 11 13 15
10 10 8 5 5 4 4 4 6 4 5 3 7 12 23 27 31 33 33 27 20 18 14 11 9 6 4 2 1 1 4 7 8 8 5 5 4 4 8 13 15 11 12 12 12 12 11 12 13
8 8 5 7 6 5 2 6 7 9 9 11 9 20 29 32 32 36 33 26 19 20 16 13 13 10 6 2 2 0 3 5 7 9 4 3 5 5 8 13 15 13 12 12 11 10 12 11 12
13 12 10 9 6 6 3 7 5 9 10 13 13 26 30 31 32 36 31 27 24 23 19 15 15 12 7 2 3 2 2 4 5 9 4 6 6 8 9 11 12 13 11 11 10 11 11 12 12

GFSSGP_850_spd_027.txt.gz
Wind_Speed
12 13 11 6 3 2 3 3 2 2 1 2 5 6 6 3 4 7 4 12 8 14 13 16 17 16 13 10 9 8 7 7 7 8 8 9 10 11 11 11 11 12 12 13 12 12 11 11 11
13 12 7 3 2 3 3 3 6 3 9 14 7 9 5 6 13 7 6 13 10 13 11 15 16 15 12 10 10 9 7 7 7 8 10 11 12 12 13 14 14 14 13 13 13 12 11 11 11
12 8 3 2 2 5 2 6 3 9 13 3 3 5 5 5 8 6 11 15 13 14 11 13 14 15 14 12 11 8 6 6 7 9 11 13 13 11 12 14 15 15 14 12 10 11 12 12 11
8 4 2 4 10 6 4 3 5 10 4 4 3 7 6 11 6 9 13 15 13 12 13 14 15 16 15 15 13 11 9 8 8 10 12 12 13 12 13 15 16 16 15 14 11 15 16 18 13
8 3 3 4 7 5 8 13 8 7 7 8 3 3 5 13 12 12 13 15 13 11 13 15 17 17 16 19 17 15 12 10 10 11 13 12 11 14 15 17 17 19 18 17 16 18 18 20 17
4 1 4 7 7 6 7 12 7 8 4 5 3 4 6 14 14 15 14 15 14 11 10 15 17 17 17 20 19 17 13 12 12 12 14 13 12 14 15 16 17 19 20 20 19 19 19 20 17
5 3 5 5 6 7 6 4 3 2 2 2 5 4 6 14 17 16 16 16 17 17 13 14 17 19 19 20 20 18 16 14 14 14 16 15 14 15 15 15 16 19 20 21 23 22 22 23 22
5 3 4 6 6 6 6 5 8 1 2 8 3 3 9 21 26 18 19 20 22 21 18 18 19 21 23 23 22 20 18 15 15 17 18 18 17 16 16 17 17 17 17 19 21 23 24 25 25
7 6 11 8 7 7 2 4 3 2 11 9 11 13 14 20 25 23 22 26 28 28 25 23 24 23 25 26 23 21 18 17 18 20 21 20 20 19 19 18 17 16 17 17 19 18 17 19 22
11 11 14 11 11 9 7 10 11 7 16 28 19 20 17 22 26 27 25 34 35 34 30 28 27 27 27 28 25 22 19 19 19 21 21 21 22 21 20 20 18 17 15 16 17 17 18 17 16
12 19 21 20 21 7 16 18 15 15 18 29 20 26 31 25 31 31 31 33 40 39 33 32 30 29 28 29 26 23 19 19 20 21 20 19 20 21 22 21 20 17 14 15 14 16 19 17 14
13 21 30 27 21 14 18 16 21 20 35 36 30 26 29 33 35 38 34 33 38 42 37 35 32 30 30 29 26 22 19 19 20 19 17 17 18 20 21 22 19 17 16 15 15 14 16 18 17
15 21 22 26 23 23 25 23 21 30 42 36 28 28 31 33 37 36 36 33 37 43 42 39 34 31 30 29 25 22 18 19 18 17 15 15 16 17 17 19 19 17 17 15 14 14 15 15 15
11 28 28 22 20 26 22 28 13 27 40 30 32 35 34 31 33 36 33 31 35 42 44 41 35 31 29 28 23 19 18 18 18 14 14 15 15 15 16 18 19 19 18 16 13 14 13 14 15
12 15 13 14 21 14 19 20 17 33 29 25 31 34 33 31 31 31 31 33 33 40 46 42 33 29 28 26 21 18 19 18 14 14 15 17 16 15 15 17 18 18 17 16 14 14 14 14 15
9 6 14 12 18 14 11 20 14 28 20 22 24 25 28 33 36 35 32 33 33 42 45 36 33 29 28 25 20 19 18 15 14 15 16 17 16 15 14 16 16 16 16 15 14 13 13 14 14
8 12 15 11 8 6 13 18 15 15 13 23 29 29 28 29 31 32 35 29 29 35 37 34 31 29 27 23 19 18 16 14 13 14 15 16 17 16 14 14 14 15 16 16 14 13 12 14 13
18 12 10 13 9 11 16 22 15 25 18 27 29 29 28 31 34 33 29 21 21 25 27 28 31 30 25 20 18 16 14 12 13 14 16 16 16 15 13 13 13 15 15 15 12 12 13 14 13
17 21 21 14 9 7 13 18 15 24 25 25 27 30 31 34 31 29 19 15 15 18 22 26 32 30 24 19 16 14 10 10 12 14 15 15 15 14 13 12 12 14 14 13 12 12 13 13 15
24 22 23 14 12 9 16 22 18 18 23 21 24 28 26 25 21 17 13 13 15 16 22 30 31 25 19 16 13 9 8 9 9 11 11 10 10 12 13 10 10 12 12 12 13 12 16 14 15
28 29 23 20 5 9 9 18 20 23 16 21 27 25 25 21 14 11 10 10 12 18 26 31 26 20 16 13 10 8 7 5 7 8 7 6 8 9 8 8 10 11 10 10 11 14 17 15 16
27 23 23 19 9 13 2 19 16 21 21 18 24 20 20 15 14 9 8 10 14 21 29 26 21 17 14 12 9 6 4 3 5 6 6 7 7 6 5 6 9 9 8 9 10 16 15 15 17
21 14 19 16 7 12 19 13 16 7 17 22 20 19 10 6 6 7 9 11 18 28 28 23 19 15 14 11 7 4 2 3 6 7 7 6 6 5 4 5 5 5 7 7 12 16 14 13 15
15 11 11 9 11 17 19 14 21 14 21 17 14 15 5 4 2 9 13 19 28 29 25 21 17 15 13 10 5 3 2 3 6 8 7 5 3 5 5 5 6 7 7 9 14 14 11 10 10
20 15 7 8 9 13 11 13 19 10 18 17 16 10 4 2 8 15 21 28 33 29 24 20 17 15 13 10 4 2 1 3 6 8 6 2 2 6 8 7 7 8 9 11 12 11 9 8 7
28 23 11 11 9 9 15 10 9 19 27 26 23 10 6 8 14 19 24 27 31 27 23 18 15 14 12 9 3 2 1 3 6 5 5 4 3 8 9 8 7 8 10 11 11 10 9 7 7
24 18 18 14 1 3 5 6 12 16 12 12 18 13 11 14 19 22 26 30 29 25 21 17 14 13 12 9 4 3 1 4 5 3 4 2 4 9 11 10 7 8 10 10 12 11 10 9 8
19 23 12 10 13 8 5 5 10 9 14 10 9 12 13 16 20 24 28 31 28 22 19 16 13 12 11 7 5 3 1 2 5 3 2 3 5 9 12 11 9 10 10 13 12 11 9 10 10
11 22 7 10 6 6 3 5 8 16 15 14 11 14 19 21 24 27 28 30 26 22 20 16 15 13 11 7 5 3 1 1 4 2 2 3 5 8 12 12 10 11 10 11 11 10 9 10 9
22 19 21 11 8 8 2 5 1 9 1 3 9 13 19 21 23 26 27 30 27 24 21 17 16 13 9 6 6 4 1 0 4 4 4 4 6 8 12 12 11 10 10 10 9 8 9 10 9

GFSSGP_850_spd_030.txt.gz
Wind_Speed
13 14 10 4 5 5 11 7 3 6 7 2 5 6 6 10 8 6 1 10 11 13 12 14 15 14 15 13 9 9 7 4 4 5 5 7 9 10 11 11 11 13 14 14 12 12 13 11 9
14 14 5 4 7 9 9 4 9 2 4 7 7 10 10 11 8 8 5 12 12 12 13 13 15 16 15 13 11 9 7 4 4 5 7 8 9 11 12 11 11 12 13 14 15 13 10 11 10
14 8 8 5 8 10 2 10 5 2 2 2 4 4 2 3 4 3 5 13 12 13 13 12 15 17 15 14 12 11 8 6 5 6 8 10 11 11 11 12 13 13 12 12 12 12 12 11 10
10 6 7 9 11 6 7 6 3 5 5 2 4 6 4 5 2 3 6 13 13 15 13 13 17 18 17 15 13 12 10 8 8 8 10 12 12 11 11 13 14 15 15 15 13 12 12 14 14
9 7 9 11 13 8 7 9 8 9 4 5 2 4 4 3 6 10 8 13 16 17 16 15 17 19 18 17 16 15 13 12 11 11 12 13 13 11 12 16 16 17 17 18 17 16 17 18 17
12 8 10 12 14 8 8 10 10 13 10 5 4 6 3 5 9 8 7 13 16 17 17 17 18 20 19 19 19 19 18 16 14 14 13 14 13 12 15 17 17 16 18 19 19 18 18 20 19
17 9 14 15 12 10 12 8 11 6 7 6 4 9 4 2 11 15 8 10 16 16 19 19 18 20 22 21 22 23 21 19 17 16 15 16 14 14 16 18 17 17 17 19 20 22 23 23 22
15 10 18 13 13 12 1 8 1 4 3 4 5 7 8 11 13 13 9 11 17 20 20 22 21 22 23 25 28 26 23 21 19 18 17 18 18 17 18 18 17 19 19 19 19 19 21 23 23
15 10 14 19 15 12 6 10 5 5 11 14 12 15 15 14 13 13 12 13 17 22 24 23 23 23 24 25 25 27 25 23 22 21 19 19 16 15 16 16 20 21 20 19 18 18 18 19 22
18 15 22 21 14 16 17 12 13 11 15 21 21 18 15 14 18 18 17 18 19 24 25 26 25 24 23 21 21 24 23 21 18 16 14 15 15 15 17 18 23 21 21 20 18 18 17 15 12
25 25 21 26 23 23 22 23 21 20 15 25 23 21 23 23 23 23 23 22 21 22 28 26 30 28 25 22 19 18 17 16 16 17 17 15 15 14 15 14 14 14 16 13 13 13 12 12 15
30 30 28 30 33 24 20 29 25 24 24 30 26 25 27 31 29 28 28 27 23 21 26 27 29 33 30 22 21 19 18 16 15 14 17 18 15 15 14 14 15 16 15 15 14 12 12 13 14
31 25 32 28 32 30 26 27 31 30 28 31 26 25 28 30 32 33 32 28 24 22 22 27 29 31 32 31 21 21 21 18 15 14 15 17 15 14 14 15 16 17 16 15 13 12 13 12 12
30 32 35 34 32 28 25 30 31 29 31 30 28 27 27 28 29 29 27 27 22 22 19 25 31 33 33 31 30 28 25 18 19 13 13 18 16 14 14 16 16 17 16 16 16 12 11 12 12
32 25 24 24 27 26 26 26 26 27 30 28 24 25 27 28 28 25 24 24 22 21 20 26 31 31 32 30 29 26 21 22 14 12 17 18 19 16 16 16 17 18 18 18 17 13 12 12 13
21 25 24 25 23 27 20 28 23 23 25 23 21 25 28 30 28 25 26 27 23 24 23 28 24 30 32 31 29 25 19 18 13 13 13 17 18 17 18 18 19 19 18 18 16 13 12 13 15
25 26 32 25 22 18 21 32 23 22 22 18 23 28 31 31 28 24 23 22 19 23 23 25 22 27 29 30 27 24 22 17 13 12 12 14 15 17 19 18 17 18 16 16 14 12 13 13 14
25 26 27 28 21 15 24 30 21 25 24 27 25 31 28 30 30 23 21 20 23 20 19 17 20 25 28 26 24 19 14 12 12 11 12 14 15 16 18 18 17 15 16 17 13 14 13 12 13
26 30 30 23 22 21 27 29 24 22 23 29 28 30 32 30 25 18 20 16 15 15 13 15 20 25 25 21 18 14 12 11 10 10 12 14 14 17 17 18 15 15 16 13 13 14 13 14 14
29 29 30 24 23 23 24 29 26 24 24 31 29 32 28 27 20 15 13 8 9 8 10 15 20 23 23 18 14 11 10 9 8 9 11 11 12 15 17 16 15 13 14 13 14 14 11 14 16
31 30 25 27 20 22 24 29 31 27 31 30 24 24 31 28 21 12 6 6 7 9 13 17 20 23 21 16 13 11 8 7 6 8 7 8 9 10 12 12 13 12 12 14 14 14 14 14 16
31 25 25 25 21 23 22 23 28 22 22 22 29 28 27 21 13 9 8 9 11 13 16 20 21 23 20 15 10 9 7 7 7 6 7 8 10 9 9 8 9 11 13 13 12 10 12 12 13
33 22 23 24 23 25 28 19 23 19 21 25 20 24 24 13 10 11 10 12 14 18 21 21 22 19 15 13 9 7 7 6 5 5 7 8 10 8 7 6 8 12 11 10 8 10 12 10 11
22 17 18 18 17 21 24 21 24 24 27 25 22 18 19 10 8 11 13 17 19 21 21 21 19 15 13 11 9 8 7 5 4 6 8 6 7 6 6 7 8 7 6 6 9 11 10 9 9
27 21 11 13 14 17 19 19 21 24 17 25 18 11 11 11 12 16 20 21 23 23 21 19 17 14 13 10 8 6 5 4 4 5 5 4 3 6 7 7 7 7 7 8 10 10 8 9 10
30 27 14 19 15 15 20 11 14 10 22 32 28 14 10 13 15 19 22 24 24 22 21 18 16 14 12 10 7 6 5 3 3 4 1 0 4 8 8 8 7 8 8 9 10 10 8 7 7
29 24 24 11 10 7 13 14 16 17 21 16 17 20 15 12 16 21 24 23 23 22 20 17 15 13 12 10 7 6 5 2 3 3 1 3 3 8 7 8 7 8 8 9 8 7 8 8 9
28 24 21 15 18 16 12 10 8 8 11 13 13 15 17 16 19 23 24 24 22 20 18 15 13 13 12 10 7 5 4 2 2 2 2 3 6 10 8 7 7 8 9 9 10 8 8 8 10
18 23 19 18 13 14 7 8 9 17 10 12 12 16 18 21 24 26 25 24 21 20 17 15 14 13 13 10 8 6 4 2 2 1 2 3 7 10 9 7 7 8 7 8 8 9 9 9 8
27 21 26 13 20 11 6 4 1 7 2 10 7 12 19 23 25 26 26 25 23 20 18 16 15 13 12 9 8 5 3 2 1 3 3 4 8 9 10 9 7 7 7 7 6 6 6 7 7

GFSSGP_850_spd_033.txt.gz
Wind_Speed
9 12 8 4 7 7 12 17 9 4 6 1 5 8 11 13 10 5 5 5 10 16 7 10 12 13 12 11 8 7 6 3 1 1 3 5 6 8 8 9 10 11 12 13 13 12 13 11 10
11 9 7 11 8 13 14 10 8 6 5 6 9 9 12 8 9 6 4 9 10 16 9 11 12 14 14 12 10 9 8 5 2 2 3 5 7 9 10 10 10 10 12 13 13 12 12 12 10
13 10 12 7 13 14 5 3 13 6 4 7 6 3 8 4 2 6 4 7 13 17 11 12 13 15 17 14 12 11 9 7 5 4 5 6 8 9 10 11 11 11 10 10 11 11 11 12 11
10 10 13 11 18 13 10 3 3 3 9 7 10 10 5 3 2 2 2 8 11 14 16 13 15 17 18 17 15 13 11 9 9 8 7 8 10 10 9 10 12 12 14 14 13 12 11 11 14
14 16 13 15 18 18 2 13 6 7 10 5 1 13 2 9 4 2 1 8 9 12 14 15 17 19 19 19 18 16 14 12 11 10 10 10 12 13 11 12 13 15 15 16 17 17 14 15 16
15 20 14 15 20 18 6 8 10 11 11 11 3 10 7 4 3 3 1 6 10 12 16 17 17 22 22 22 20 19 17 16 14 13 13 13 14 14 13 13 16 16 16 16 19 18 18 17 19
20 14 16 19 19 13 7 12 12 11 11 6 5 7 9 3 4 2 3 5 10 14 17 19 20 24 25 24 23 21 20 19 18 17 16 16 17 16 15 15 18 18 17 17 17 19 21 21 21
24 14 23 19 17 18 12 4 13 7 10 7 3 10 16 2 4 7 9 9 11 15 18 20 21 22 28 28 28 25 24 23 21 20 20 19 19 19 16 17 18 17 18 17 19 19 19 22 25
23 16 17 21 21 18 18 9 15 8 13 16 15 19 18 19 17 16 17 16 16 16 20 21 22 21 24 26 27 30 27 26 24 23 23 21 18 13 15 19 16 21 22 22 21 19 17 18 21
26 17 25 21 19 18 25 14 17 15 11 18 20 22 18 15 14 18 21 22 23 22 22 23 24 24 23 21 21 24 28 28 26 24 18 15 12 14 14 15 19 23 22 22 23 18 16 16 14
30 24 24 27 24 25 29 31 27 20 24 21 22 26 20 22 23 24 25 27 28 27 23 24 27 29 26 22 22 18 17 19 18 18 17 15 15 13 13 13 17 17 15 13 13 12 11 9 11
29 35 33 33 36 32 28 34 26 30 29 27 26 27 23 25 26 28 29 31 33 33 28 20 26 31 32 25 24 21 18 18 16 16 18 17 14 13 12 12 13 17 16 14 16 14 14 16 14
31 30 37 37 40 39 36 34 34 33 35 33 27 29 27 27 28 28 30 33 33 32 29 17 26 35 36 34 26 25 22 20 17 17 15 16 14 14 13 13 17 18 15 15 15 17 13 15 14
38 38 39 41 41 40 32 35 35 35 37 38 28 31 31 29 29 30 31 31 28 27 23 19 26 36 37 30 32 32 28 21 20 16 15 16 15 14 13 14 20 19 17 16 18 19 15 15 13
43 34 34 36 38 33 35 36 34 38 39 37 33 34 32 27 28 31 32 28 24 22 19 19 25 34 37 29 34 27 21 22 17 15 15 15 16 14 16 15 17 17 18 18 20 20 17 14 14
33 33 30 32 32 35 27 33 27 37 36 35 29 31 24 28 31 32 30 27 23 23 21 19 22 28 29 26 27 26 21 19 17 14 13 14 15 15 15 17 17 19 20 19 18 17 15 15 16
26 28 37 31 30 27 29 39 28 36 34 37 36 24 25 31 32 28 27 24 21 20 19 20 23 23 24 24 23 22 20 17 14 13 12 13 15 15 17 18 20 20 19 17 16 16 16 14 15
32 32 31 32 29 28 32 35 28 29 30 37 34 28 31 36 32 30 26 20 17 15 17 20 21 21 24 21 21 18 17 14 13 12 11 13 14 16 17 19 22 19 17 17 16 16 14 13 13
33 25 31 32 29 30 32 34 24 25 34 36 34 28 32 34 35 28 20 16 14 13 14 17 18 22 22 21 20 19 16 12 11 11 12 12 14 13 20 23 21 17 17 16 16 15 13 15 13
33 32 32 29 28 27 27 29 29 24 26 36 37 32 31 35 31 22 11 8 8 10 13 16 19 22 22 19 18 15 12 11 9 9 10 11 12 16 21 20 18 17 15 13 14 12 17 15 14
33 32 30 31 25 25 27 29 31 30 32 35 40 43 39 32 26 24 10 6 7 11 14 17 19 20 22 18 17 14 11 10 9 9 8 11 12 14 13 15 15 15 13 12 12 15 14 13 13
33 30 28 26 22 21 22 22 31 24 25 24 35 34 26 26 27 21 9 9 11 13 15 18 19 21 19 19 14 12 9 8 7 7 8 8 11 12 15 15 12 11 9 15 14 14 13 13 13
38 24 27 25 20 24 29 18 24 21 24 24 23 27 28 28 23 14 12 13 13 15 17 19 21 20 18 15 12 10 8 6 5 6 9 10 14 15 13 9 9 10 13 13 11 9 11 12 13
29 28 27 21 20 20 27 21 26 23 26 20 23 27 24 25 18 11 14 16 17 18 19 20 21 18 15 13 11 9 8 6 6 6 8 13 11 11 9 8 9 10 9 9 8 10 10 10 11
29 26 18 19 20 26 19 21 24 23 22 22 23 28 18 15 16 17 19 20 22 23 22 21 20 17 14 12 9 7 5 5 5 6 9 7 7 6 6 8 7 5 6 6 8 10 10 10 8
34 31 17 32 14 20 24 26 22 22 24 27 27 12 12 13 16 18 21 23 24 23 22 20 18 16 14 11 8 6 5 3 4 7 5 3 4 6 7 6 5 6 6 7 8 9 7 7 8
39 27 35 24 23 20 17 17 18 18 17 13 15 22 19 17 18 21 23 24 24 23 21 19 17 15 13 11 8 6 5 4 4 6 4 4 3 4 5 6 6 7 8 9 9 7 4 4 5
33 28 23 21 28 24 16 14 8 6 10 15 15 16 22 19 20 23 25 25 23 22 20 18 15 14 12 10 7 5 6 4 3 7 2 4 6 7 5 5 6 8 7 5 5 6 6 7 8
25 24 31 21 20 17 16 10 9 6 8 12 15 19 26 24 24 26 26 25 23 21 19 17 15 13 12 10 7 5 5 3 3 4 2 4 7 8 5 4 6 5 6 6 6 6 6 7 6
31 29 30 17 26 18 9 7 6 3 13 10 13 21 24 24 26 27 27 26 24 21 19 16 15 13 12 9 7 5 4 2 3 2 4 3 8 8 7 6 6 6 6 6 6 6 7 6 4

GFSSGP_850_spd_036.txt.gz
Wind_Speed
6 9 8 2 4 7 15 18 19 1 2 6 5 2 12 10 11 5 12 14 15 9 9 10 11 12 12 13 11 10 9 6 5 4 3 3 4 5 6 6 6 8 10 10 9 10 12 10 9
11 13 2 7 6 11 11 6 9 6 24 7 2 4 5 3 13 14 13 11 13 7 9 10 12 13 14 14 13 12 10 8 5 3 2 3 5 6 6 7 7 7 9 11 12 10 10 11 10
13 9 11 5 10 14 13 7 7 8 12 4 5 4 3 4 12 12 10 8 13 12 12 11 12 14 15 15 15 13 11 9 6 3 1 2 5 6 6 6 6 7 8 8 9 10 10 10 11
9 9 12 8 18 21 16 11 12 20 11 2 4 5 4 9 6 6 4 7 14 11 11 14 13 14 15 17 17 15 13 11 8 6 4 4 5 8 8 7 7 8 9 10 10 12 12 11 10
10 13 11 14 19 20 17 11 10 6 10 7 2 4 13 10 10 7 5 9 11 15 14 12 16 16 17 19 18 17 15 13 11 9 7 7 8 9 10 9 9 10 11 12 13 13 15 15 13
11 12 11 14 21 21 17 1 14 10 11 11 6 6 2 9 12 6 4 8 9 13 18 19 16 19 20 21 21 19 17 15 13 12 10 10 11 12 13 13 10 13 14 14 14 15 17 17 17
19 12 16 20 21 21 8 8 13 15 7 11 11 4 7 15 6 0 4 8 11 13 18 21 20 20 23 24 24 22 20 18 16 16 15 14 15 15 16 15 12 14 16 15 15 15 16 18 20
23 12 22 20 19 21 19 9 15 15 9 8 4 3 5 3 5 6 8 12 14 16 22 25 23 24 26 30 29 27 25 22 21 19 19 19 19 19 19 13 13 14 13 14 16 16 17 18 19
23 15 16 22 23 21 22 17 18 24 3 17 13 14 15 16 19 18 13 15 17 16 22 28 26 25 24 31 33 32 30 27 27 25 23 22 21 20 13 14 16 18 17 18 20 20 17 16 17
21 16 26 21 22 21 23 19 25 17 9 15 21 23 19 18 11 14 17 20 21 22 24 29 29 29 28 24 31 33 35 31 31 29 26 24 20 13 7 16 17 19 18 15 15 10 9 11 13
27 23 24 26 29 31 26 26 30 26 18 23 25 25 23 19 22 20 22 25 24 24 27 28 33 33 32 28 22 28 28 31 36 31 28 23 14 9 15 15 15 17 15 16 16 9 10 9 6
26 35 34 35 35 35 27 33 33 32 31 25 32 27 23 19 21 25 27 27 23 26 27 30 28 33 32 30 26 29 31 26 29 29 24 20 17 23 17 15 16 15 17 16 12 14 15 10 12
29 29 38 39 37 37 38 33 31 36 37 37 35 31 33 26 24 31 28 26 23 26 24 26 23 30 28 35 29 29 29 23 21 18 19 22 21 16 12 13 13 15 13 14 12 14 17 16 14
34 35 37 40 38 38 30 32 36 36 39 36 36 33 34 36 26 31 25 27 25 24 23 22 15 23 26 32 36 31 31 25 24 24 24 22 21 16 19 18 19 23 18 18 22 22 20 17 16
40 31 30 31 36 32 36 32 29 37 38 35 40 37 36 35 30 32 20 26 25 26 20 17 17 16 26 32 34 33 32 29 27 29 20 22 21 17 19 16 16 18 16 18 23 24 22 16 16
32 32 30 28 30 38 32 32 25 37 33 33 33 34 34 30 29 16 23 26 27 25 22 17 18 20 27 34 33 32 24 29 22 20 22 22 22 20 16 15 17 17 20 22 20 20 19 17 18
29 24 33 31 29 29 29 33 26 37 36 34 31 31 30 34 24 18 26 26 25 22 20 20 21 21 28 32 28 25 26 27 27 18 18 17 18 16 14 15 16 19 22 20 20 17 15 16 15
22 30 30 28 26 28 31 29 27 32 35 32 32 25 25 37 29 20 26 29 22 17 16 17 21 22 27 26 21 22 26 21 16 19 18 15 16 15 16 18 19 21 20 18 16 16 14 13 14
27 31 33 29 27 28 26 25 28 24 26 26 28 23 29 37 33 25 24 32 17 21 24 25 23 27 29 23 22 22 22 22 20 17 14 15 16 18 17 18 21 20 20 17 16 12 13 14 13
34 32 30 29 28 24 23 26 26 22 22 26 26 26 26 32 26 22 23 17 16 17 18 19 20 23 26 23 21 21 21 14 13 13 14 16 16 18 18 18 22 20 16 15 14 14 14 15 15
31 31 28 31 25 27 24 26 25 24 27 27 28 32 25 25 33 40 25 15 16 13 13 14 17 23 24 22 20 16 17 12 16 16 13 17 17 16 15 16 14 13 13 12 10 11 14 14 14
29 28 29 28 23 20 19 19 25 20 21 20 25 25 26 26 35 32 20 19 15 11 12 15 20 20 22 18 19 21 17 15 12 10 10 8 8 16 15 15 14 11 8 8 10 11 13 14 14
34 21 27 28 25 21 23 14 29 17 17 16 13 20 25 27 27 15 19 20 14 14 15 17 19 22 19 23 17 18 14 10 6 6 10 14 17 16 15 14 10 8 8 11 10 12 13 14 14
26 26 29 26 19 19 26 19 29 19 19 17 16 24 26 21 22 23 21 20 19 17 18 19 21 21 22 22 15 13 11 8 9 8 8 11 15 10 10 7 7 8 7 10 10 10 9 11 12
31 23 17 19 17 21 17 19 23 21 19 18 18 19 22 18 21 29 26 23 21 21 21 22 24 21 20 16 14 13 11 12 10 7 9 11 8 7 4 5 8 6 6 5 7 8 10 9 10
29 25 16 25 17 19 21 26 20 21 21 25 20 14 18 24 22 26 23 24 24 24 23 22 23 18 17 14 11 9 6 2 2 9 8 6 5 4 4 5 3 2 3 4 4 7 6 7 8
30 28 31 22 21 19 16 18 30 27 20 14 7 15 21 22 24 23 24 25 26 26 25 23 20 18 16 13 11 8 5 4 2 7 7 4 1 3 3 3 3 6 5 5 4 4 5 5 8
31 21 25 19 25 24 20 22 14 11 15 12 13 9 17 25 25 24 25 27 27 25 24 21 19 18 16 13 10 8 4 3 4 7 3 2 7 6 3 2 5 7 2 4 5 5 4 5 6
24 25 23 21 18 16 15 14 12 2 9 6 9 17 18 26 25 27 26 27 26 25 23 21 19 17 15 13 9 7 4 4 4 6 3 4 11 5 1 3 7 7 7 6 5 5 6 5 4
29 25 25 19 24 17 13 15 5 2 5 5 11 21 29 27 26 28 28 27 26 24 22 20 19 16 14 12 9 7 4 6 2 1 1 5 10 10 4 5 5 4 2 4 3 4 5 5 4

GFSSGP_850_spd_042.txt.gz
Wind_Speed
4 4 7 4 2 3 3 6 4 9 3 3 11 13 7 3 5 4 22 20 22 15 19 18 16 16 15 14 14 13 11 9 8 7 5 5 4 4 3 2 1 1 2 4 6 6 6 7 9
5 7 5 1 3 1 4 4 6 3 7 16 17 10 5 1 16 16 24 21 15 14 17 17 17 16 16 16 15 14 13 12 11 9 6 4 2 3 4 4 3 2 2 4 6 7 6 6 7
8 8 3 3 3 5 4 4 2 2 1 6 1 8 8 4 14 18 13 18 17 15 16 17 17 17 17 17 16 16 16 15 13 11 8 5 2 1 3 4 5 5 4 5 6 7 7 7 7
9 4 2 2 7 7 6 6 8 4 6 1 8 4 3 14 23 15 15 14 15 15 16 16 18 19 18 19 20 20 20 19 16 13 11 8 5 2 2 4 5 5 6 6 8 9 8 8 10
9 2 1 3 6 8 4 13 22 5 4 9 13 2 3 15 17 22 16 12 12 17 16 16 20 21 21 22 23 24 23 22 19 16 13 11 8 6 4 5 7 6 6 7 9 10 11 12 11
3 2 1 5 6 10 3 15 9 5 8 9 8 2 5 14 13 13 14 11 9 9 12 16 19 24 25 24 25 26 25 24 22 20 17 15 12 9 7 7 8 7 6 8 10 10 11 12 13
3 2 4 4 6 11 3 10 5 14 16 4 8 7 10 18 11 10 7 7 15 18 17 17 20 24 27 26 27 28 28 27 24 23 21 18 15 13 10 9 9 10 7 6 8 9 10 12 13
6 3 4 4 4 10 4 12 11 15 8 3 8 5 6 17 14 10 8 10 17 22 25 24 24 25 28 29 30 30 30 30 27 26 25 22 19 17 14 12 11 11 9 7 8 8 11 13 14
14 2 5 6 5 8 10 15 29 21 16 7 4 3 9 8 9 17 14 21 25 25 27 33 32 30 31 30 31 33 33 32 31 30 29 26 25 21 17 14 13 11 11 8 8 8 10 12 14
8 7 8 8 7 6 19 12 33 12 19 17 8 12 16 25 11 21 16 20 21 25 29 30 30 32 33 34 34 35 37 37 36 36 34 31 28 24 19 16 14 13 10 10 11 11 11 10 8
9 11 13 18 20 19 21 21 25 18 13 18 8 21 16 21 17 17 24 20 17 17 14 18 23 32 36 36 36 37 39 40 40 39 37 35 31 26 23 18 16 15 11 13 13 13 12 9 9
9 18 23 27 28 25 18 27 23 26 24 27 28 27 26 18 19 24 20 24 23 23 23 22 20 21 28 33 35 39 41 40 41 42 40 38 34 30 26 20 19 17 14 17 15 15 13 11 10
19 10 20 24 27 28 30 25 24 32 39 35 33 33 30 27 32 32 30 28 26 25 25 26 22 18 20 28 32 38 40 40 37 39 40 38 36 32 26 21 20 17 17 19 17 16 15 15 14
5 11 24 24 26 28 21 25 29 33 37 36 36 37 38 38 36 34 34 31 29 31 30 26 22 19 19 22 26 30 35 38 37 33 32 33 31 31 25 20 18 20 20 18 18 17 18 18 18
19 12 16 21 14 9 17 21 25 36 32 33 33 27 31 38 38 35 31 30 28 29 30 26 19 20 22 25 24 26 31 38 39 31 26 26 23 20 19 18 18 21 19 19 18 20 20 20 21
4 5 17 16 16 12 8 32 16 14 19 27 32 38 44 44 45 47 42 39 33 27 23 22 20 21 22 24 24 25 29 37 37 29 25 24 20 19 18 18 18 17 21 21 21 22 23 22 22
6 17 19 19 7 4 14 37 14 26 29 29 31 39 41 39 42 44 44 41 32 24 24 26 22 19 21 23 24 25 30 35 30 25 22 23 22 20 16 20 15 17 21 24 24 23 23 22 22
12 20 19 18 6 14 19 32 21 32 35 34 40 43 44 46 46 44 44 42 27 27 30 26 20 21 20 22 25 28 31 30 26 24 23 22 19 16 18 15 16 17 17 20 23 23 22 20 18
7 17 8 5 11 14 19 23 18 20 18 21 30 32 39 42 42 44 31 33 28 24 28 24 21 21 23 25 31 32 29 25 23 20 21 21 20 18 14 15 16 17 18 20 21 20 20 19 16
13 15 14 9 9 9 13 22 23 22 19 29 33 33 38 39 41 43 34 32 27 24 20 21 21 22 24 27 30 34 32 24 21 20 19 18 13 13 15 16 17 17 21 22 21 20 18 16 16
16 18 14 10 10 22 13 12 17 20 17 28 30 35 35 29 32 35 37 31 29 24 22 22 24 23 21 23 24 24 24 21 21 21 19 17 16 16 17 17 17 18 20 20 16 16 15 15 15
19 9 12 15 11 16 7 17 21 22 25 21 21 30 34 35 40 39 38 34 28 25 22 22 20 19 19 21 20 20 20 23 20 15 15 16 17 19 19 20 17 17 17 17 14 14 12 13 14
20 11 13 14 10 16 17 7 29 7 18 12 14 23 34 39 37 34 33 31 27 23 23 20 17 18 18 17 15 18 19 16 14 17 13 13 15 17 15 17 18 15 15 12 9 9 10 12 14
5 9 12 16 3 11 9 10 28 16 22 18 7 29 32 32 35 29 19 20 25 24 22 18 17 20 19 18 20 18 19 19 14 15 15 13 13 14 15 15 11 11 8 7 7 8 10 10 12
5 2 2 3 7 15 11 9 23 7 5 10 14 25 35 35 31 22 20 25 29 26 22 19 22 24 22 22 20 19 19 16 15 14 12 12 12 15 13 12 8 6 5 6 7 9 10 11 11
6 9 5 7 4 8 7 12 16 16 26 31 36 35 37 37 25 21 23 31 31 27 23 24 26 26 24 23 20 17 18 14 13 11 10 11 12 10 9 7 6 5 4 5 5 7 8 8 7
5 9 7 5 14 1 6 9 18 23 24 21 21 24 32 26 22 28 33 33 30 26 24 24 30 27 25 22 18 15 14 12 11 9 7 8 8 7 7 6 5 6 6 6 6 6 6 7 8
8 3 4 3 6 8 6 6 10 7 14 10 12 17 17 19 27 33 34 32 28 24 23 28 27 26 23 20 14 11 10 9 7 5 5 6 7 8 7 6 8 9 8 7 5 4 4 5 8
1 4 5 4 3 8 6 9 8 12 10 12 17 17 27 35 35 37 34 30 26 24 28 26 24 24 21 15 12 13 10 6 4 4 5 8 8 5 6 6 9 7 6 5 3 4 4 4 6
6 9 5 5 11 5 11 16 9 9 10 8 10 16 32 39 39 37 35 32 29 30 29 26 25 22 17 13 15 12 8 7 6 3 7 11 10 8 7 9 8 6 6 5 5 6 5 5 6

GFSSGP_850_spd_045.txt.gz
Wind_Speed
6 3 6 5 2 4 4 6 3 5 1 4 2 11 5 7 6 5 19 20 20 22 21 19 18 16 15 14 13 12 11 10 9 9 8 7 6 5 4 3 3 3 3 4 4 5 6 7 8
5 6 7 3 4 1 5 5 7 6 5 6 10 10 4 1 6 8 24 24 23 21 16 18 19 18 16 16 16 15 14 12 11 10 8 6 4 3 2 2 2 2 1 2 4 4 4 5 6
8 10 4 4 4 6 5 6 2 8 19 5 2 5 8 4 10 23 21 22 20 16 14 18 19 19 17 18 18 18 17 16 15 13 10 8 5 3 2 2 3 4 4 4 4 4 5 5 5
10 6 3 2 9 6 5 3 5 8 18 3 2 6 2 7 13 16 21 18 14 15 16 19 20 19 19 19 20 20 19 19 18 16 13 10 8 6 3 0 3 4 4 5 5 5 5 6 7
10 3 2 3 6 5 4 8 9 10 6 4 2 2 3 10 14 14 13 11 6 13 17 19 19 20 22 21 22 22 22 21 21 19 16 14 11 9 6 3 3 5 5 5 5 5 6 7 9
4 1 1 6 5 3 6 9 11 4 16 5 4 6 5 19 14 14 11 8 9 9 14 19 23 25 25 25 24 24 24 24 24 22 19 17 15 12 9 7 5 5 5 6 6 6 8 7 9
6 3 4 3 3 3 4 2 3 4 8 7 6 5 5 14 15 15 11 13 6 12 16 17 22 26 27 28 26 27 27 27 27 25 23 21 19 16 12 10 8 7 5 6 6 6 8 8 9
7 4 4 4 4 4 4 3 1 11 12 9 8 2 5 10 15 15 18 17 18 21 20 20 23 24 27 31 31 30 30 30 30 29 27 25 23 20 17 14 11 9 7 5 7 6 7 8 11
8 3 5 6 6 5 9 5 1 10 8 21 11 9 7 7 19 20 23 21 23 24 26 25 27 28 28 31 33 32 34 34 33 32 31 29 28 24 20 17 13 11 10 8 8 7 8 10 10
6 5 10 7 9 3 9 14 14 5 5 17 18 10 7 8 15 20 27 26 26 26 27 31 32 31 34 35 36 36 38 39 38 38 36 35 33 28 24 20 16 14 12 10 10 9 10 10 9
8 9 18 10 18 11 9 13 12 11 8 13 6 24 26 23 18 12 26 27 25 26 29 32 34 35 38 38 38 40 40 43 43 41 40 39 36 32 29 24 20 17 15 14 11 10 12 10 9
4 17 21 23 20 10 15 13 14 22 22 34 30 25 30 31 28 20 18 22 23 27 27 26 25 31 35 40 40 40 43 46 47 45 43 42 40 36 32 28 23 19 18 17 14 13 14 13 11
15 7 17 30 25 21 22 21 17 27 31 32 35 32 32 33 32 25 30 29 25 28 32 33 28 28 28 35 33 35 38 41 49 47 45 44 42 38 33 30 25 21 21 18 16 15 16 15 13
3 15 21 23 21 15 14 24 24 25 37 30 29 31 34 36 30 24 27 32 31 27 28 30 33 35 27 24 25 27 32 34 37 42 45 44 42 37 33 31 26 25 21 19 17 15 16 17 16
13 7 10 12 8 8 8 23 24 31 32 29 36 36 35 32 33 36 38 38 39 40 40 35 34 31 25 22 22 25 27 30 34 37 41 39 36 33 30 30 27 23 19 19 19 16 18 20 18
4 4 14 13 10 7 8 29 11 24 21 32 29 28 30 36 40 44 45 44 44 37 37 36 31 27 26 25 22 24 25 26 29 31 35 30 25 23 23 26 24 20 18 19 20 18 19 21 20
5 16 17 9 5 8 16 30 14 28 24 27 31 36 40 42 43 46 48 46 46 44 40 34 30 30 28 24 25 27 24 26 28 29 26 23 21 21 24 21 20 17 19 20 21 18 20 23 23
10 11 11 11 4 11 15 28 12 19 22 27 31 34 40 43 47 45 44 39 36 38 36 30 30 31 26 26 27 29 26 28 27 24 21 19 19 21 19 17 19 20 20 18 18 20 22 23 22
4 9 3 8 10 14 19 24 20 19 21 23 30 33 39 39 39 46 42 42 41 39 34 30 31 32 28 28 29 30 27 26 24 20 19 18 19 19 17 16 18 22 18 15 16 18 21 21 19
6 5 3 7 8 4 10 17 10 10 14 24 28 30 33 38 37 36 34 37 30 25 31 31 29 29 25 28 30 27 23 21 17 17 17 18 18 18 17 15 17 17 18 18 19 20 22 21 18
6 12 7 5 9 17 12 18 12 12 12 25 32 33 35 30 37 42 41 37 37 30 28 30 25 23 25 25 24 22 17 16 17 17 17 17 14 13 12 12 14 18 19 19 18 17 16 17 14
11 4 5 8 5 10 2 17 18 21 23 20 26 32 27 33 39 40 37 35 36 36 28 28 24 22 21 21 20 23 24 21 19 16 13 12 12 13 13 15 19 18 19 19 17 16 15 14 12
11 10 9 11 6 4 7 5 23 8 22 17 15 28 36 45 38 36 36 32 31 26 26 26 22 20 18 18 16 19 19 18 18 15 13 14 14 15 17 17 18 16 16 16 16 12 11 11 12
1 4 7 7 3 6 8 9 24 9 20 19 21 25 34 35 33 32 26 29 23 19 26 24 21 19 17 18 18 18 19 19 18 17 16 14 14 14 14 16 15 15 13 11 9 9 9 10 11
3 4 1 1 3 10 12 9 22 6 3 5 8 17 28 31 33 34 35 29 22 25 27 24 21 20 19 18 17 18 18 16 14 13 14 14 13 11 13 14 13 12 10 10 10 10 10 11 12
5 8 4 6 4 7 6 13 16 13 22 31 31 29 26 26 27 31 28 22 23 29 27 24 22 21 20 18 19 17 16 15 13 13 13 11 10 12 12 10 8 8 8 8 8 9 10 10 9
2 4 7 3 4 2 6 10 18 20 15 14 11 18 26 32 32 31 21 25 29 30 27 25 23 22 22 23 20 17 16 14 13 13 11 9 9 9 8 7 7 6 5 5 4 5 6 7 8
6 4 3 1 5 5 6 9 12 6 19 20 15 10 28 33 26 25 24 26 30 27 24 24 23 24 25 23 19 16 14 12 11 10 8 6 7 7 7 7 6 7 7 6 5 4 5 7 8
1 3 4 3 5 4 3 6 7 12 9 5 9 21 31 33 21 24 26 27 29 26 26 27 26 27 25 21 17 13 13 11 9 7 5 5 7 7 7 6 7 8 7 6 5 4 4 4 5
4 4 3 6 7 10 1 8 8 3 7 7 8 25 25 11 18 26 29 31 30 28 29 31 29 26 22 19 16 14 13 10 6 4 3 7 9 8 7 7 8 6 5 5 4 4 5 4 6

GFSSGP_850_spd_048.txt.gz
Wind_Speed
6 5 6 5 3 4 3 7 3 5 3 2 4 9 13 6 7 5 15 20 17 20 21 21 18 15 13 13 13 14 14 12 11 10 9 8 7 6 5 4 4 2 2 2 3 4 5 5 6
6 7 8 3 3 3 5 5 5 8 9 12 6 10 5 5 10 6 18 22 21 19 23 19 16 15 14 14 15 15 15 14 12 11 9 7 6 5 5 4 3 2 1 1 1 2 4 3 3
9 11 5 4 4 5 6 5 7 7 10 7 4 8 6 5 17 19 23 23 23 23 21 15 13 15 16 16 17 17 16 16 15 13 11 8 6 5 4 3 3 2 1 0 1 1 3 4 3
11 6 3 2 8 6 6 3 4 8 13 6 3 2 3 7 15 19 21 23 22 22 16 13 12 16 19 19 19 18 18 18 17 15 13 11 9 6 5 3 2 1 1 1 1 1 2 5 5
13 4 2 2 6 6 5 11 12 7 4 5 6 4 3 6 18 18 19 20 18 17 15 14 15 18 22 21 20 20 20 20 19 18 16 14 12 10 7 5 3 0 1 1 2 2 3 5 6
5 2 1 7 7 5 6 15 10 6 5 6 4 5 2 10 14 16 19 16 13 10 10 14 15 20 24 25 23 21 22 23 22 22 20 19 17 13 11 8 5 2 2 2 1 2 3 5 7
5 4 5 3 3 4 6 10 5 5 7 3 4 5 4 13 11 14 12 13 9 10 15 16 21 23 26 27 26 26 25 25 25 25 24 22 21 17 15 12 9 5 4 4 4 3 3 4 7
5 4 4 5 4 6 4 3 3 2 3 8 6 3 3 9 9 10 13 15 15 14 16 20 21 26 29 29 30 30 29 29 28 28 27 26 24 22 18 16 13 9 6 6 5 4 4 5 7
7 3 5 7 7 4 2 5 5 6 6 8 4 6 10 5 10 11 15 19 18 19 20 22 24 29 31 32 33 33 32 33 32 32 31 30 30 27 23 20 16 12 9 8 8 6 6 7 8
6 5 10 6 11 5 7 3 4 7 11 5 12 4 3 6 7 14 17 22 23 22 23 25 30 32 33 32 35 37 36 37 37 36 37 35 34 31 26 23 19 16 13 11 11 9 9 8 8
9 10 13 10 18 13 13 16 5 2 7 10 3 13 22 11 11 13 19 23 26 21 23 27 29 32 35 36 38 40 40 41 41 42 40 39 37 34 31 28 24 20 16 14 14 12 11 10 9
6 18 22 10 15 9 13 22 5 13 21 26 28 27 27 28 20 15 21 24 23 23 26 26 30 35 38 39 43 44 44 44 45 45 44 42 41 38 35 32 27 24 20 18 16 14 12 13 12
13 5 16 26 21 21 22 18 19 24 28 34 30 30 29 30 24 19 19 21 21 21 23 24 26 31 35 38 43 44 44 45 43 46 47 45 45 42 37 35 30 26 22 21 18 16 15 16 14
4 16 23 17 11 12 8 18 14 20 30 29 33 37 35 33 29 28 25 20 22 26 27 26 27 30 31 32 37 36 37 42 44 44 45 44 46 45 38 34 32 29 24 24 20 17 16 15 14
5 5 3 7 4 7 10 23 21 24 31 32 32 39 37 35 32 30 26 27 30 33 37 36 34 31 34 36 31 32 29 33 35 34 36 36 39 43 38 34 32 31 26 24 21 19 18 18 17
6 3 13 13 8 7 11 28 18 24 20 29 33 38 35 34 27 27 30 32 33 41 39 35 35 38 32 33 29 28 24 27 29 30 35 34 32 31 31 31 31 28 25 22 19 19 20 20 19
4 15 14 12 8 11 15 25 7 20 18 24 29 34 36 37 38 38 35 34 38 35 39 30 30 31 30 31 27 27 28 29 29 34 31 28 22 23 22 23 23 21 22 19 16 17 20 22 21
10 12 8 7 7 10 12 27 15 15 13 20 25 32 36 40 42 44 43 39 35 34 33 31 29 32 29 28 29 29 31 31 30 30 25 20 17 17 18 18 18 18 18 16 16 18 18 21 22
3 11 2 3 5 8 19 22 16 12 21 23 29 35 41 45 49 44 40 34 34 29 30 25 25 25 28 28 31 30 33 32 27 25 18 15 15 16 17 15 14 15 16 16 16 15 16 19 17
2 3 1 4 4 2 6 11 9 6 11 21 27 31 33 42 42 37 33 30 31 33 31 31 25 25 26 30 28 30 30 25 21 15 13 15 16 16 15 12 12 12 15 18 18 17 19 20 19
5 5 3 2 7 6 5 14 10 7 16 26 33 33 35 37 35 36 35 34 34 33 31 31 28 24 27 28 30 27 22 19 17 15 16 17 16 14 13 10 10 12 15 17 17 18 17 17 15
5 7 5 5 5 6 2 12 13 9 15 13 25 32 34 31 37 41 38 37 34 33 33 33 30 23 24 25 25 21 19 17 13 13 14 15 15 14 14 10 10 14 16 17 16 16 15 15 13
7 2 4 2 3 3 2 4 6 5 11 17 19 33 36 37 44 44 42 37 29 30 31 32 22 21 22 21 17 15 13 10 10 15 16 16 14 12 11 11 12 15 16 16 15 14 13 11 11
4 6 2 3 3 4 6 6 18 9 16 13 14 26 31 33 32 34 33 28 27 21 26 20 17 20 17 16 14 13 12 13 16 17 15 13 11 11 12 14 14 14 15 13 11 10 9 8 8
2 5 2 2 3 11 13 9 21 5 3 3 6 9 13 16 20 23 22 23 25 22 19 17 19 19 18 16 15 15 14 14 14 15 13 12 11 10 10 11 13 13 11 9 9 8 8 8 8
6 7 5 6 4 4 8 11 9 14 25 33 26 20 18 17 22 24 24 21 21 19 17 19 20 20 19 17 18 17 15 16 15 12 11 10 9 10 10 10 9 8 7 7 8 9 9 9 9
4 4 5 3 2 1 4 7 11 14 19 11 5 13 21 22 28 26 27 21 20 18 20 22 21 20 19 19 19 19 17 16 13 12 11 10 10 9 8 7 6 6 6 5 5 6 7 9 9
4 5 3 2 4 4 5 6 8 8 8 14 8 9 27 34 33 29 16 16 17 18 21 21 20 20 19 19 19 17 15 13 12 11 10 9 9 7 7 6 7 6 5 5 4 4 4 5 7
3 2 2 4 5 4 2 5 7 14 2 5 6 13 29 32 29 15 5 14 15 21 24 23 22 21 22 21 18 15 14 12 10 9 9 7 7 7 7 8 8 8 7 5 3 4 4 5 7
1 3 1 4 7 7 3 7 2 6 5 5 8 25 33 25 22 7 5 14 23 27 27 25 23 23 23 20 16 13 11 10 10 9 6 8 11 9 9 9 10 8 6 5 4 5 4 3 4